Weather History for Destin, FL

Change the Weather History Date:

Tuesday, September 10, 2013

  Actual Average Record
Temperature  
Mean Temperature 84 °F -  
Max Temperature 90 °F 85 °F 93 °F (2001)
Min Temperature 78 °F 71 °F 69 °F (2011)
Cooling Degree Days 18    
Growing Degree Days 34 (Base 50)    
Moisture  
Dew Point 71 °F    
Average Humidity 68    
Maximum Humidity 84    
Minimum Humidity 50    
Precipitation  
Precipitation 0.00 in - - ()
Sea Level Pressure  
Sea Level Pressure 30.09 in    
Wind  
Wind Speed 4 mph (ESE)    
Max Wind Speed 9 mph    
Max Gust Speed -    
Visibility 10 miles    
Events      
Averages and records for this station are not official NWS values.
T = Trace of Precipitation, MM = Missing Value Source: NWS Daily Summary

Daily Weather History Graph

Daily Weather History Graph

Search for Another Location

Airport:

Trip Planner

Search our weather history database for the weather conditions in past years. The results will help you decide how hot, cold, wet, or windy it might be!

Date:

Astronomy

Sep. 10, 2013 Rise Set
Actual Time 6:27 AM CDT 6:57 PM CDT
Civil Twilight 6:03 AM CDT 7:21 PM CDT
Nautical Twilight 5:35 AM CDT 7:49 PM CDT
Astronomical Twilight 5:06 AM CDT 8:18 PM CDT
Moon 11:28 AM CDT (9/10) 10:25 PM CDT (9/10)
Length of Visible Light 13h 17m
Length of Day
12h 29m
Waxing Crescent, 28% of the Moon is Illuminated
Sep 10
Waxing Crescent
Sep 12
First Quarter
Sep 19
Full
Sep 26
Last Quarter
Oct 4
New

Hourly Weather History & Observations

Time (CDT) Temp. Heat Index Dew Point Humidity Pressure Visibility Wind Dir Wind Speed Gust Speed Precip Events Conditions
12:53 AM 82.0 °F 86.3 °F 71.1 °F 69% 30.04 in 10.0 mi North 3.5 mph - N/A   Scattered Clouds
1:53 AM 80.1 °F 83.8 °F 72.0 °F 76% 30.05 in 10.0 mi NNE 3.5 mph - N/A   Scattered Clouds
2:53 AM 80.1 °F 83.8 °F 72.0 °F 76% 30.03 in 10.0 mi NNE 4.6 mph - N/A   Overcast
3:53 AM 79.0 °F - 71.1 °F 77% 30.04 in 10.0 mi Calm Calm - N/A   Clear
4:53 AM 78.1 °F - 73.0 °F 84% 30.05 in 9.0 mi East 4.6 mph - N/A   Clear
5:53 AM 78.1 °F - 73.0 °F 84% 30.07 in 9.0 mi NNE 3.5 mph - N/A   Clear
6:53 AM 78.1 °F - 72.0 °F 81% 30.09 in 8.0 mi Calm Calm - N/A   Mostly Cloudy
7:53 AM 79.0 °F - 73.0 °F 82% 30.11 in 8.0 mi East 4.6 mph - N/A   Overcast
8:53 AM 80.1 °F 84.2 °F 73.0 °F 79% 30.12 in 10.0 mi East 8.1 mph - N/A   Mostly Cloudy
9:53 AM 82.9 °F 88.8 °F 73.0 °F 72% 30.14 in 10.0 mi East 8.1 mph - N/A   Mostly Cloudy
10:53 AM 87.1 °F 92.0 °F 70.0 °F 57% 30.14 in 10.0 mi ESE 8.1 mph - N/A   Clear
11:53 AM 88.0 °F 92.1 °F 69.1 °F 53% 30.13 in 10.0 mi ESE 9.2 mph - N/A   Partly Cloudy
12:53 PM 89.1 °F 92.9 °F 68.0 °F 50% 30.13 in 10.0 mi ESE 8.1 mph - N/A   Scattered Clouds
1:53 PM 89.1 °F 93.7 °F 69.1 °F 52% 30.11 in 10.0 mi SSE 6.9 mph - N/A   Clear
2:53 PM 89.1 °F 94.1 °F 70.0 °F 53% 30.08 in 10.0 mi SSE 8.1 mph - N/A   Clear
3:53 PM 88.0 °F 92.1 °F 69.1 °F 53% 30.06 in 10.0 mi South 5.8 mph - N/A   Clear
4:53 PM 88.0 °F 92.9 °F 70.0 °F 55% 30.06 in 10.0 mi SSE 8.1 mph - N/A   Clear
5:53 PM 87.1 °F 92.0 °F 70.0 °F 57% 30.06 in 10.0 mi SSE 6.9 mph - N/A   Clear
6:53 PM 84.9 °F 89.4 °F 70.0 °F 61% 30.07 in 10.0 mi SE 4.6 mph - N/A   Scattered Clouds
7:53 PM 84.0 °F 88.4 °F 70.0 °F 63% 30.09 in 10.0 mi SE 3.5 mph - N/A   Mostly Cloudy
8:53 PM 81.0 °F 84.9 °F 71.1 °F 72% 30.10 in 10.0 mi Calm Calm - N/A   Clear
9:53 PM 81.0 °F 84.9 °F 71.1 °F 72% 30.11 in 10.0 mi Calm Calm - N/A   Clear
10:53 PM 79.0 °F - 71.1 °F 77% 30.11 in 10.0 mi Calm Calm - N/A   Clear
11:53 PM 80.1 °F 83.6 °F 71.1 °F 74% 30.10 in 10.0 mi Calm Calm - N/A   Clear